Greenville Downtown, SC

7:53 PM EST on December 16, 2017 (GMT -0500)
Greenville Downtown

Weather History for KGMU - January, 2013

Change the Weather History Date:

Saturday, January 5, 2013

  Actual Average Record
Temperature  
Mean Temperature 38 °F -  
Max Temperature 46 °F 51 °F 70 °F (2009)
Min Temperature 30 °F 34 °F 15 °F (1999)
Degree Days  
Heating Degree Days 27    
Moisture  
Dew Point 22 °F    
Average Humidity 49    
Maximum Humidity 73    
Minimum Humidity 34    
Precipitation  
Precipitation 0.01 in - - ()
Sea Level Pressure  
Sea Level Pressure 30.33 in    
Wind  
Wind Speed 4 mph (SW)    
Max Wind Speed 9 mph    
Max Gust Speed -    
Visibility 10 miles    
Events Rain    
Averages and records for this station are not official NWS values.
T = Trace of Precipitation, MM = Missing Value Source: NWS Daily Summary

Daily Weather History Graph

Daily Weather History Graph

Search for Another Location

Airport or City:

Trip Planner

Search our weather history database for the weather conditions in past years. The results will help you decide how hot, cold, wet, or windy it might be!

Date:

Astronomy

Jan. 05, 2013 Rise Set
Actual Time 7:37 AM EST 5:32 PM EST
Civil Twilight 7:09 AM EST 6:00 PM EST
Nautical Twilight 6:38 AM EST 6:31 PM EST
Astronomical Twilight 6:07 AM EST 7:02 PM EST
Moon 12:51 AM EST (1/5) 12:14 PM EST (1/5)
Length of Visible Light 10h 50m
Length of Day
9h 55m
Last Quarter, 44% of the Moon is Illuminated
Jan 5
Last Quarter
Jan 11
New
Jan 18
First Quarter
Jan 26
Full
Feb 3
Last Quarter

Hourly Weather History & Observations

Time (EST) Temp. Windchill Dew Point Humidity Pressure Visibility Wind Dir Wind Speed Gust Speed Precip Events Conditions
12:53 AM 36.0 °F 33.3 °F 19.0 °F 50% 30.33 in 10.0 mi West 3.5 mph - N/A   Clear
1:53 AM 34.0 °F - 19.0 °F 54% 30.33 in 10.0 mi Calm Calm - N/A   Clear
2:53 AM 32.0 °F - 19.0 °F 59% 30.35 in 10.0 mi Calm Calm - N/A   Clear
3:53 AM 36.0 °F 29.0 °F 18.0 °F 48% 30.33 in 10.0 mi North 9.2 mph - N/A   Clear
4:53 AM 34.0 °F 28.8 °F 18.0 °F 52% 30.32 in 10.0 mi North 5.8 mph - N/A   Clear
5:53 AM 34.0 °F - 17.1 °F 50% 30.33 in 10.0 mi Calm Calm - N/A   Clear
6:53 AM 32.0 °F 28.7 °F 18.0 °F 56% 30.36 in 10.0 mi ESE 3.5 mph - N/A   Clear
7:53 AM 30.0 °F - 19.9 °F 66% 30.39 in 10.0 mi Calm Calm - N/A   Clear
8:53 AM 33.1 °F - 21.0 °F 61% 30.40 in 10.0 mi Calm Calm - N/A   Clear
9:53 AM 37.9 °F 33.5 °F 21.0 °F 51% 30.41 in 10.0 mi SW 5.8 mph - N/A   Clear
10:53 AM 42.1 °F 38.4 °F 21.0 °F 43% 30.41 in 10.0 mi West 5.8 mph - N/A   Clear
11:53 AM 45.0 °F 41.8 °F 19.0 °F 36% 30.38 in 10.0 mi South 5.8 mph - N/A   Clear
12:53 PM 46.0 °F 43.9 °F 19.0 °F 34% 30.34 in 10.0 mi Variable 4.6 mph - N/A   Clear
1:53 PM 46.9 °F - 19.9 °F 34% 30.32 in 10.0 mi WSW 9.2 mph - N/A   Clear
2:53 PM 46.9 °F - 19.9 °F 34% 30.31 in 10.0 mi SSW 6.9 mph - N/A   Clear
3:53 PM 46.9 °F - 21.0 °F 36% 30.29 in 10.0 mi South 3.5 mph - N/A   Clear
4:53 PM 46.9 °F - 21.9 °F 37% 30.31 in 10.0 mi SW 5.8 mph - N/A   Clear
5:53 PM 45.0 °F 43.5 °F 23.0 °F 42% 30.30 in 10.0 mi SW 3.5 mph - N/A   Clear
6:53 PM 45.0 °F 43.5 °F 24.1 °F 44% 30.30 in 10.0 mi SW 3.5 mph - N/A   Overcast
7:53 PM 45.0 °F 42.6 °F 24.1 °F 44% 30.32 in 10.0 mi WSW 4.6 mph - N/A   Mostly Cloudy
8:53 PM 45.0 °F 40.6 °F 25.0 °F 46% 30.33 in 10.0 mi SW 8.1 mph - 0.00 in   Overcast
9:53 PM 44.1 °F 42.5 °F 28.9 °F 55% 30.30 in 10.0 mi SW 3.5 mph - 0.00 in Rain Light Rain
10:53 PM 43.0 °F 41.3 °F 30.0 °F 60% 30.27 in 10.0 mi SW 3.5 mph - 0.00 in Rain Light Rain
11:53 PM 41.0 °F 37.1 °F 33.1 °F 73% 30.24 in 9.0 mi SW 5.8 mph - 0.01 in Rain Light Rain